Location: Oak Glen
(34.0495°N, 116.9470°E)
Time: 07:44:05
(UTC-07:00)

N. Korean satellite - Pass Details

Date: 07 October 2017
Orbit: 459 x 517 km, 97.2° (Epoch: 18 October)

Event Time Altitude Azimuth Distance (km) Brightness Sun altitude
Rises 03:21:07 0° 169° (SSE) 2,586 10.2 -7.5°
Reaches altitude 10° 03:23:13 10° 169° (S) 1,698 9.2 -8.0°
Maximum altitude 03:26:52 86° 257° (WSW) 500 6.6 -8.7°
Drops below altitude 10° 03:30:29 10° 348° (NNW) 1,677 9.4 -9.5°
Sets 03:32:32 0° 349° (NNW) 2,552 10.4 -9.9°
